Home   Weather   Hartford   Past weeks
Flag for USA

Past Weather in Hartford, Connecticut, USA — Yesterday and Last 2 Weeks

Now
69 °F

Mostly cloudy.


Feels Like: 69 °F
Forecast: 72 / 65 °F
Wind: 13 mph from North

Location: Hartford-Brainard Airport

Current Time: Jul 23, 2019 at 12:27:24 pm

Latest Report: Jul 23, 2019 at 11:53 am


Visibility: 10 mi

Pressure: 29.81 "Hg

Humidity: 81%

Dew Point: 63 °F

Location of HartfordLocation

Past Weather in Hartford — Graph

°F

Hartford Temperature Yesterday

Maximum temperature yesterday: 85 °F (at 2:53 pm)
Minimum temperature yesterday: 68 °F (at 9:36 pm)
Average temperature yesterday: 74 °F

High & Low Weather Summary for the Past Weeks

 TemperatureHumidityPressure
High97 °F (Jul 21, 3:53 pm)97% (Jul 9, 5:53 am)30.08 "Hg (Jul 9, 5:53 am)
Low62 °F (Jul 16, 5:53 am)29% (Jul 10, 4:53 pm)29.67 "Hg (Jul 12, 3:53 pm)
Average78 °F69%29.88 "Hg
* Reported Jul 8 10:53 am — Jul 23 10:53 am, Hartford. Weather by CustomWeather, © 2019

Note: Actual official high and low records may vary slightly from our data, if they occured in-between our weather recording intervals... More about our weather records

Advertising

Hartford Weather History for the Previous 24 Hours

Scroll right to see more
 ConditionsComfort  
Time TempWeatherWind HumidityBarometerVisibility
10:53 am
Tue, Jul 23
68 °FMostly cloudy.8 mph87%29.79 "Hg10 mi
10:02 am67 °FCloudy.9 mph90%29.79 "Hg10 mi
8:53 am65 °FLight rain. Fog.9 mph94%29.79 "Hg6 mi
7:53 am65 °FLight rain. Fog.8 mph94%29.78 "Hg6 mi
7:00 am64 °FLight rain. Fog.12 mph94%29.76 "Hg5 mi
6:43 am64 °FRain. Fog.13 mph94%29.75 "Hg2 mi
6:38 am64 °FRain. Fog.14 mph94%29.75 "Hg3 mi
6:14 am64 °FFog.13 mph94%29.77 "Hg2 mi
5:53 am64 °FFog.14 mph94%29.77 "Hg2 mi
5:31 am64 °FFog.12 mph94%29.77 "Hg2 mi
5:14 am64 °FFog.9 mph94%29.77 "Hg4 mi
4:23 am65 °FFog.8 mph94%29.75 "Hg4 mi
4:03 am65 °FFog.8 mph94%29.75 "Hg2 mi
3:53 am65 °FFog.8 mph94%29.75 "Hg3 mi
2:53 am66 °FLow clouds.10 mph93%29.76 "Hg10 mi
1:53 am66 °FFog.10 mph93%29.76 "Hg6 mi
1:01 am67 °FMostly cloudy.9 mph90%29.77 "Hg9 mi
12:32 am67 °FMostly cloudy.9 mph93%29.77 "Hg7 mi
12:10 am68 °FFog.8 mph90%29.78 "Hg4 mi
11:53 pm
Mon, Jul 22
68 °FFog.6 mph93%29.77 "Hg6 mi
11:33 pm68 °FFog.8 mph90%29.77 "Hg6 mi
10:53 pm68 °FOvercast.9 mph90%29.76 "Hg7 mi
9:53 pm68 °FFog.9 mph93%29.73 "Hg6 mi
9:36 pm68 °FFog.14 mph93%29.73 "Hg6 mi
8:53 pm69 °FFog.7 mph90%29.79 "Hg5 mi
7:53 pm70 °FFog.10 mph90%29.75 "Hg4 mi
7:43 pm70 °FFog.9 mph93%29.76 "Hg3 mi
7:18 pm70 °FFog.12 mph93%29.76 "Hg4 mi
7:03 pm70 °FFog.3 mph93%29.76 "Hg3 mi
6:53 pm70 °FFog.3 mph90%29.75 "Hg2 mi
6:39 pm69 °FFog.3 mph93%29.76 "Hg2 mi
6:09 pm69 °FThundershowers. Fog.8 mph90%29.76 "Hg3 mi
6:01 pm69 °FThundershowers. Fog.7 mph90%29.77 "Hg2 mi
4:53 pm73 °FPartly sunny.16 mph79%29.78 "Hg10 mi
3:53 pm80 °FMostly cloudy.10 mph69%29.78 "Hg10 mi
2:53 pm85 °FPartly sunny.No wind57%29.78 "Hg10 mi
1:53 pm82 °FOvercast.3 mph60%29.80 "Hg10 mi
12:53 pm80 °FMostly cloudy.3 mph62%29.83 "Hg10 mi
Weather by CustomWeather, © 2019

See weather overview